TimeMST,TemperatureF,Dew PointF,Humidity,Sea Level PressureIn,VisibilityMPH,Wind Direction,Wind SpeedMPH,Gust SpeedMPH,PrecipitationIn,Events,Conditions,WindDirDegrees,DateUTC
12:53 AM,12.0,-2.0,53,30.18,10.0,Calm,Calm,-,N/A,,Clear,0,2012-12-20 07:53:00
1:53 AM,8.1,-0.9,67,30.19,10.0,Calm,Calm,-,N/A,,Clear,0,2012-12-20 08:53:00
2:53 AM,7.0,-0.9,70,30.20,10.0,SSW,5.8,-,N/A,,Clear,200,2012-12-20 09:53:00
3:53 AM,16.0,-0.0,49,30.14,10.0,South,3.5,-,N/A,,Clear,170,2012-12-20 10:53:00
4:53 AM,10.0,-0.0,64,30.19,10.0,NNW,5.8,-,N/A,,Clear,330,2012-12-20 11:53:00
5:53 AM,7.0,-0.0,73,30.19,10.0,South,8.1,-,N/A,,Clear,190,2012-12-20 12:53:00
6:53 AM,12.9,1.9,62,30.17,10.0,SSE,4.6,-,N/A,,Clear,150,2012-12-20 13:53:00
7:53 AM,10.9,1.0,64,30.20,10.0,Calm,Calm,-,N/A,,Clear,0,2012-12-20 14:53:00
8:53 AM,12.9,5.0,71,30.22,10.0,Variable,4.6,-,N/A,,Clear,0,2012-12-20 15:53:00
9:53 AM,19.9,8.1,60,30.20,10.0,Calm,Calm,-,N/A,,Clear,0,2012-12-20 16:53:00
10:53 AM,28.0,12.9,53,30.19,10.0,Calm,Calm,-,N/A,,Clear,0,2012-12-20 17:53:00
11:53 AM,30.9,10.0,42,30.17,10.0,North,4.6,-,N/A,,Clear,350,2012-12-20 18:53:00
12:53 PM,35.1,12.9,40,30.13,10.0,NNE,4.6,-,N/A,,Clear,30,2012-12-20 19:53:00
1:53 PM,42.1,14.0,32,30.12,10.0,SSW,3.5,-,N/A,,Clear,210,2012-12-20 20:53:00
2:53 PM,39.0,16.0,39,30.12,10.0,NNE,4.6,-,N/A,,Clear,20,2012-12-20 21:53:00
3:53 PM,33.1,17.1,52,30.09,10.0,NNW,3.5,-,N/A,,Clear,340,2012-12-20 22:53:00
4:53 PM,24.1,14.0,65,30.14,10.0,Calm,Calm,-,N/A,,Clear,0,2012-12-20 23:53:00
5:53 PM,21.0,12.9,71,30.16,10.0,Calm,Calm,-,N/A,,Clear,0,2012-12-21 00:53:00
6:53 PM,26.1,12.9,58,30.13,10.0,SSE,3.5,-,N/A,,Clear,150,2012-12-21 01:53:00
7:53 PM,33.1,10.0,38,30.11,10.0,South,4.6,-,N/A,,Clear,180,2012-12-21 02:53:00
8:53 PM,21.9,12.0,66,30.14,10.0,Calm,Calm,-,N/A,,Clear,0,2012-12-21 03:53:00
9:53 PM,23.0,10.9,60,30.11,10.0,South,4.6,-,N/A,,Clear,180,2012-12-21 04:53:00
10:53 PM,26.1,10.9,53,30.08,10.0,SSE,3.5,-,N/A,,Clear,160,2012-12-21 05:53:00
11:53 PM,24.1,10.9,57,30.08,10.0,North,4.6,-,N/A,,Clear,10,2012-12-21 06:53:00